Location: Poughquag
(41.6090°N, 73.6820°W)
Time: 20:47:25
(UTC-04:00)

STARLINK-1348 - Pass Details

Date: 29 May 2020
Orbit: 379 x 380 km, 53.0° (Epoch: 04 July)

Event Time Altitude Azimuth Distance (km) Brightness Sun altitude
Exits shadow 01:36:36 13° 61° (ENE) 1,229 5.9 -25.9°
Drops below altitude 10° 01:37:01 10° 59° (ENE) 1,399 6.2 -25.8°
Sets 01:39:06 0° 55° (NE) 2,255 7.4 -25.8°
